This demonstration page uses our WeatherBlox Daily Observations layout. Learn more.

Left ArrowRight Arrow

36.19886, -115.1175

Hourly Observations for March 25, 2017

Temp ( °F °C ) Dew Point ( °F °C ) Humidity (%) Winds ( mph kmh ) Pressure ( in mb ) Visibility ( mi km ) Precip ( " mm )
12:53 am 00:53 Clear 68 20 26 -3.3 21 21 S 6 9 30.00 1016 10 16 N/A
1:53 am 01:53 Mostly Clear 67 19.4 30 -1.1 25 25 S 12 19 29.98 1015 10 16 N/A
2:53 am 02:53 Clear 67 19.4 31 -0.6 26 26 SSW 13 20 29.97 1015 10 16 N/A
3:53 am 03:53 Clear 66 18.9 33 0.6 29 29 SSW 8 13 29.93 1014 10 16 N/A
4:53 am 04:53 Mostly Cloudy 65 18.3 34 1.1 32 32 N N/A 29.93 1014 10 16 N/A
5:53 am 05:53 Mostly Cloudy 62 16.7 36 2.2 38 38 WNW 13 20 29.93 1014 10 16 N/A
6:53 am 06:53 Partly Cloudy 60 15.6 37 2.8 42 42 N N/A 29.95 1014 10 16 N/A
7:53 am 07:53 Mostly Sunny 62 16.7 37 2.8 40 40 WNW 26 43 29.93 1014 10 16 N/A
8:00 am 08:00 Partly Cloudy 61 16.1 37 2.8 41 41 NW 29 46 29.88 1012 10 16 N/A
8:53 am 08:53 Mostly Cloudy 62 16.7 37 2.8 40 40 NNW 21 33 29.97 1015 10 16 N/A
9:53 am 09:53 Sunny 62 16.7 38 3.3 41 41 NNW 24 39 29.99 1016 10 16 N/A
10:53 am 10:53 Sunny 64 17.8 38 3.3 38 38 NW 22 35 29.98 1015 10 16 N/A
11:53 am 11:53 Sunny 64 17.8 37 2.8 37 37 N 23 37 29.97 1015 10 16 N/A
12:53 pm 12:53 Sunny 67 19.4 35 1.7 31 31 NNW 23 37 29.95 1014 10 16 N/A
1:53 pm 13:53 Sunny 69 20.6 34 1.1 27 27 NNW 23 37 29.93 1014 10 16 N/A
2:53 pm 14:53 Sunny 69 20.6 34 1.1 27 27 NNW 15 24 29.93 1014 10 16 N/A
3:53 pm 15:53 Sunny 70 21.1 32 undefined 25 25 N 16 26 29.92 1013 10 16 N/A
4:53 pm 16:53 Mostly Cloudy 70 21.1 32 undefined 25 25 N 14 22 29.91 1013 10 16 N/A
5:53 pm 17:53 Sunny 70 21.1 32 undefined 25 25 N 15 24 29.91 1013 10 16 N/A
6:53 pm 18:53 Mostly Cloudy 68 20 31 -0.6 25 25 NNW 9 15 29.93 1014 10 16 N/A
7:53 pm 19:53 Mostly Clear 64 17.8 36 2.2 35 35 E 9 15 29.95 1014 10 16 N/A
8:53 pm 20:53 Clear 63 17.2 36 2.2 37 37 E 9 15 29.97 1015 10 16 N/A
9:53 pm 21:53 Clear 62 16.7 36 2.2 38 38 ENE 5 7 29.97 1015 10 16 N/A
10:53 pm 22:53 Clear 60 15.6 36 2.2 41 41 SSE 6 9 29.98 1015 10 16 N/A
11:53 pm 23:53 Clear 59 15 36 2.2 42 42 S 5 7 29.99 1016 10 16 N/A

Powered by AerisWeather